datetime,flow
1954-10-01,132.0
1954-10-02,127.0
1954-10-03,127.0
1954-10-04,132.0
1954-10-05,132.0
1954-10-06,120.0
1954-10-07,132.0
1954-10-08,147.0
1954-10-09,147.0
1954-10-10,142.0
1954-10-11,140.0
1954-10-12,147.0
1954-10-13,163.0
1954-10-14,166.0
1954-10-15,171.0
1954-10-16,157.0
1954-10-17,171.0
1954-10-18,174.0
1954-10-19,166.0
1954-10-20,179.0
1954-10-21,179.0
1954-10-22,188.0
1954-10-23,202.0
1954-10-24,202.0
1954-10-25,202.0
1954-10-26,199.0
1954-10-27,202.0
1954-10-28,205.0
1954-10-29,205.0
1954-10-30,208.0
1954-10-31,211.0
1954-11-01,214.0
1954-11-02,211.0
1954-11-03,214.0
1954-11-04,218.0
1954-11-05,218.0
1954-11-06,221.0
1954-11-07,221.0
1954-11-08,214.0
1954-11-09,227.0
1954-11-10,237.0
1954-11-11,244.0
1954-11-12,251.0
1954-11-13,251.0
1954-11-14,258.0
1954-11-15,273.0
1954-11-16,289.0
1954-11-17,300.0
1954-11-18,316.0
1954-11-19,312.0
1954-11-20,328.0
1954-11-21,332.0
1954-11-22,336.0
1954-11-23,336.0
1954-11-24,336.0
1954-11-25,332.0
1954-11-26,328.0
1954-11-27,320.0
1954-11-28,332.0
1954-11-29,332.0
1954-11-30,300.0
1954-12-01,296.0
1954-12-02,300.0
1954-12-03,308.0
1954-12-04,308.0
1954-12-05,293.0
1954-12-06,300.0
1954-12-07,320.0
1954-12-08,316.0
1954-12-09,336.0
1954-12-10,324.0
1954-12-11,308.0
1954-12-12,300.0
1954-12-13,300.0
1954-12-14,300.0
1954-12-15,293.0
1954-12-16,289.0
1954-12-17,270.0
1954-12-18,262.0
1954-12-19,255.0
1954-12-20,247.0
1954-12-21,244.0
1954-12-22,240.0
1954-12-23,234.0
1954-12-24,234.0
1954-12-25,230.0
1954-12-26,220.0
1954-12-27,210.0
1954-12-28,211.0
1954-12-29,211.0
1954-12-30,214.0
1954-12-31,221.0
1955-01-01,227.0
1955-01-02,247.0
1955-01-03,262.0
1955-01-04,273.0
1955-01-05,247.0
1955-01-06,230.0
1955-01-07,255.0
1955-01-08,255.0
1955-01-09,234.0
1955-01-10,244.0
1955-01-11,251.0
1955-01-12,251.0
1955-01-13,240.0
1955-01-14,240.0
1955-01-15,247.0
1955-01-16,240.0
1955-01-17,227.0
1955-01-18,211.0
1955-01-19,202.0
1955-01-20,196.0
1955-01-21,194.0
1955-01-22,191.0
1955-01-23,188.0
1955-01-24,194.0
1955-01-25,196.0
1955-01-26,211.0
1955-01-27,224.0
1955-01-28,227.0
1955-01-29,234.0
1955-01-30,211.0
1955-01-31,199.0
1955-02-01,199.0
1955-02-02,218.0
1955-02-03,218.0
1955-02-04,218.0
1955-02-05,218.0
1955-02-06,218.0
1955-02-07,218.0
1955-02-08,214.0
1955-02-09,211.0
1955-02-10,211.0
1955-02-11,210.0
1955-02-12,210.0
1955-02-13,210.0
1955-02-14,220.0
1955-02-15,230.0
1955-02-16,230.0
1955-02-17,230.0
1955-02-18,230.0
1955-02-19,240.0
1955-02-20,230.0
1955-02-21,230.0
1955-02-22,230.0
1955-02-23,230.0
1955-02-24,240.0
1955-02-25,240.0
1955-02-26,240.0
1955-02-27,240.0
1955-02-28,250.0
1955-03-01,247.0
1955-03-02,240.0
1955-03-03,240.0
1955-03-04,240.0
1955-03-05,230.0
1955-03-06,230.0
1955-03-07,230.0
1955-03-08,230.0
1955-03-09,220.0
1955-03-10,221.0
1955-03-11,258.0
1955-03-12,336.0
1955-03-13,340.0
1955-03-14,330.0
1955-03-15,350.0
1955-03-16,360.0
1955-03-17,376.0
1955-03-18,400.0
1955-03-19,405.0
1955-03-20,396.0
1955-03-21,414.0
1955-03-22,400.0
1955-03-23,414.0
1955-03-24,431.0
1955-03-25,485.0
1955-03-26,526.0
1955-03-27,557.0
1955-03-28,593.0
1955-03-29,616.0
1955-03-30,629.0
1955-03-31,652.0
1955-04-01,647.0
1955-04-02,656.0
1955-04-03,660.0
1955-04-04,665.0
1955-04-05,674.0
1955-04-06,665.0
1955-04-07,652.0
1955-04-08,638.0
1955-04-09,624.0
1955-04-10,611.0
1955-04-11,593.0
1955-04-12,584.0
1955-04-13,580.0
1955-04-14,570.0
1955-04-15,570.0
1955-04-16,557.0
1955-04-17,562.0
1955-04-18,557.0
1955-04-19,552.0
1955-04-20,544.0
1955-04-21,548.0
1955-04-22,530.0
1955-04-23,508.0
1955-04-24,530.0
1955-04-25,526.0
1955-04-26,508.0
1955-04-27,508.0
1955-04-28,512.0
1955-04-29,521.0
1955-04-30,521.0
1955-05-01,521.0
1955-05-02,498.0
1955-05-03,490.0
1955-05-04,485.0
1955-05-05,480.0
1955-05-06,476.0
1955-05-07,467.0
1955-05-08,440.0
1955-05-09,427.0
1955-05-10,405.0
1955-05-11,372.0
1955-05-12,360.0
1955-05-13,352.0
1955-05-14,344.0
1955-05-15,340.0
1955-05-16,328.0
1955-05-17,324.0
1955-05-18,316.0
1955-05-19,300.0
1955-05-20,285.0
1955-05-21,277.0
1955-05-22,244.0
1955-05-23,230.0
1955-05-24,237.0
1955-05-25,208.0
1955-05-26,191.0
1955-05-27,196.0
1955-05-28,191.0
1955-05-29,176.0
1955-05-30,174.0
1955-05-31,171.0
1955-06-01,157.0
1955-06-02,147.0
1955-06-03,127.0
1955-06-04,140.0
1955-06-05,132.0
1955-06-06,118.0
1955-06-07,109.0
1955-06-08,105.0
1955-06-09,98.0
1955-06-10,96.0
1955-06-11,91.0
1955-06-12,87.0
1955-06-13,75.0
1955-06-14,68.0
1955-06-15,68.0
1955-06-16,66.0
1955-06-17,64.0
1955-06-18,60.0
1955-06-19,58.0
1955-06-20,57.0
1955-06-21,52.0
1955-06-22,48.0
1955-06-23,52.0
1955-06-24,49.0
1955-06-25,49.0
1955-06-26,46.0
1955-06-27,43.0
1955-06-28,40.0
1955-06-29,40.0
1955-06-30,35.0
1955-07-01,35.0
1955-07-02,40.0
1955-07-03,40.0
1955-07-04,37.0
1955-07-05,35.0
1955-07-06,36.0
1955-07-07,36.0
1955-07-08,34.0
1955-07-09,36.0
1955-07-10,37.0
1955-07-11,36.0
1955-07-12,35.0
1955-07-13,33.0
1955-07-14,31.0
1955-07-15,26.0
1955-07-16,25.0
1955-07-17,25.0
1955-07-18,24.0
1955-07-19,24.0
1955-07-20,22.0
1955-07-21,21.0
1955-07-22,19.0
1955-07-23,17.0
1955-07-24,15.0
1955-07-25,13.0
1955-07-26,12.0
1955-07-27,13.0
1955-07-28,13.0
1955-07-29,11.0
1955-07-30,10.0
1955-07-31,9.3
1955-08-01,8.8
1955-08-02,8.2
1955-08-03,8.8
1955-08-04,7.6
1955-08-05,6.8
1955-08-06,6.1
1955-08-07,5.4
1955-08-08,4.5
1955-08-09,4.3
1955-08-10,4.1
1955-08-11,3.8
1955-08-12,3.6
1955-08-13,2.7
1955-08-14,1.8
1955-08-15,1.6
1955-08-16,1.6
1955-08-17,1.5
1955-08-18,1.3
1955-08-19,0.8
1955-08-20,0.7000000000000001
1955-08-21,0.6000000000000001
1955-08-22,0.6000000000000001
1955-08-23,0.6000000000000001
1955-08-24,0.6000000000000001
1955-08-25,0.6000000000000001
1955-08-26,0.5
1955-08-27,0.5
1955-08-28,0.5
1955-08-29,0.5
1955-08-30,0.5
1955-08-31,0.4
1955-09-01,0.2
1955-09-02,0.1
1955-09-03,0.1
1955-09-04,0.1
1955-09-05,0.1
1955-09-06,0.1
1955-09-07,0.1
1955-09-08,0.1
1955-09-09,0.1
1955-09-10,0.1
1955-09-11,0.1
1955-09-12,0.1
1955-09-13,0.2
1955-09-14,0.4
1955-09-15,0.6000000000000001
1955-09-16,0.6000000000000001
1955-09-17,1.5
1955-09-18,2.2
1955-09-19,1.8
1955-09-20,1.3
1955-09-21,1.3
1955-09-22,1.4
1955-09-23,1.4
1955-09-24,1.5
1955-09-25,1.6
1955-09-26,1.2
1955-09-27,1.0
1955-09-28,1.3
1955-09-29,2.1
1955-09-30,2.4
1955-10-01,2.6
1955-10-02,3.3
1955-10-03,3.0
1955-10-04,3.4
1955-10-05,7.2
1955-10-06,9.7
1955-10-07,8.2
1955-10-08,11.0
1955-10-09,9.7
1955-10-10,26.0
1955-10-11,36.0
1955-10-12,46.0
1955-10-13,51.0
1955-10-14,56.0
1955-10-15,61.0
1955-10-16,65.0
1955-10-17,70.0
1955-10-18,74.0
1955-10-19,77.0
1955-10-20,83.0
1955-10-21,87.0
1955-10-22,90.0
1955-10-23,92.0
1955-10-24,94.0
1955-10-25,90.0
1955-10-26,97.0
1955-10-27,101.0
1955-10-28,101.0
1955-10-29,104.0
1955-10-30,101.0
1955-10-31,111.0
1955-11-01,119.0
1955-11-02,127.0
1955-11-03,130.0
1955-11-04,135.0
1955-11-05,140.0
1955-11-06,145.0
1955-11-07,150.0
1955-11-08,151.0
1955-11-09,153.0
1955-11-10,142.0
1955-11-11,133.0
1955-11-12,133.0
1955-11-13,135.0
1955-11-14,135.0
1955-11-15,133.0
1955-11-16,133.0
1955-11-17,133.0
1955-11-18,131.0
1955-11-19,151.0
1955-11-20,188.0
1955-11-21,203.0
1955-11-22,218.0
1955-11-23,218.0
1955-11-24,226.0
1955-11-25,236.0
1955-11-26,268.0
1955-11-27,325.0
1955-11-28,378.0
1955-11-29,396.0
1955-11-30,401.0
1955-12-01,410.0
1955-12-02,410.0
1955-12-03,414.0
1955-12-04,414.0
1955-12-05,388.0
1955-12-06,313.0
1955-12-07,297.0
1955-12-08,333.0
1955-12-09,357.0
1955-12-10,388.0
1955-12-11,410.0
1955-12-12,442.0
1955-12-13,480.0
1955-12-14,495.0
1955-12-15,500.0
1955-12-16,490.0
1955-12-17,460.0
1955-12-18,414.0
1955-12-19,455.0
1955-12-20,485.0
1955-12-21,560.0
1955-12-22,938.0
1955-12-23,1010.0
1955-12-24,992.0
1955-12-25,1010.0
1955-12-26,983.0
1955-12-27,880.0
1955-12-28,912.0
1955-12-29,776.0
1955-12-30,746.0
1955-12-31,808.0
1956-01-01,832.0
1956-01-02,816.0
1956-01-03,832.0
1956-01-04,816.0
1956-01-05,792.0
1956-01-06,776.0
1956-01-07,641.0
1956-01-08,532.0
1956-01-09,549.0
1956-01-10,634.0
1956-01-11,683.0
1956-01-12,690.0
1956-01-13,690.0
1956-01-14,662.0
1956-01-15,739.0
1956-01-16,768.0
1956-01-17,784.0
1956-01-18,792.0
1956-01-19,784.0
1956-01-20,792.0
1956-01-21,808.0
1956-01-22,816.0
1956-01-23,824.0
1956-01-24,718.0
1956-01-25,739.0
1956-01-26,725.0
1956-01-27,683.0
1956-01-28,704.0
1956-01-29,683.0
1956-01-30,676.0
1956-01-31,662.0
1956-02-01,400.0
1956-02-02,400.0
1956-02-03,650.0
1956-02-04,700.0
1956-02-05,700.0
1956-02-06,600.0
1956-02-07,600.0
1956-02-08,550.0
1956-02-09,600.0
1956-02-10,600.0
1956-02-11,550.0
1956-02-12,550.0
1956-02-13,550.0
1956-02-14,550.0
1956-02-15,550.0
1956-02-16,500.0
1956-02-17,500.0
1956-02-18,480.0
1956-02-19,480.0
1956-02-20,480.0
1956-02-21,460.0
1956-02-22,440.0
1956-02-23,420.0
1956-02-24,400.0
1956-02-25,400.0
1956-02-26,380.0
1956-02-27,380.0
1956-02-28,360.0
1956-02-29,360.0
1956-03-01,360.0
1956-03-02,340.0
1956-03-03,380.0
1956-03-04,360.0
1956-03-05,320.0
1956-03-06,310.0
1956-03-07,305.0
1956-03-08,301.0
1956-03-09,360.0
1956-03-10,360.0
1956-03-11,360.0
1956-03-12,350.0
1956-03-13,350.0
1956-03-14,420.0
1956-03-15,440.0
1956-03-16,480.0
1956-03-17,480.0
1956-03-18,480.0
1956-03-19,500.0
1956-03-20,550.0
1956-03-21,550.0
1956-03-22,600.0
1956-03-23,650.0
1956-03-24,800.0
1956-03-25,850.0
1956-03-26,850.0
1956-03-27,850.0
1956-03-28,850.0
1956-03-29,900.0
1956-03-30,900.0
1956-03-31,850.0
1956-04-01,900.0
1956-04-02,950.0
1956-04-03,1000.0
1956-04-04,1000.0
1956-04-05,1000.0
1956-04-06,1000.0
1956-04-07,1000.0
1956-04-08,1100.0
1956-04-09,1100.0
1956-04-10,1100.0
1956-04-11,1200.0
1956-04-12,1200.0
1956-04-13,1200.0
1956-04-14,1200.0
1956-04-15,1200.0
1956-04-16,1190.0
1956-04-17,1180.0
1956-04-18,1170.0
1956-04-19,1160.0
1956-04-20,1140.0
1956-04-21,1120.0
1956-04-22,1100.0
1956-04-23,1070.0
1956-04-24,1050.0
1956-04-25,1050.0
1956-04-26,1040.0
1956-04-27,1010.0
1956-04-28,983.0
1956-04-29,1020.0
1956-04-30,1010.0
1956-05-01,983.0
1956-05-02,974.0
1956-05-03,974.0
1956-05-04,974.0
1956-05-05,974.0
1956-05-06,1030.0
1956-05-07,1060.0
1956-05-08,1070.0
1956-05-09,1080.0
1956-05-10,1060.0
1956-05-11,1050.0
1956-05-12,1060.0
1956-05-13,1070.0
1956-05-14,1070.0
1956-05-15,1070.0
1956-05-16,1060.0
1956-05-17,1030.0
1956-05-18,1010.0
1956-05-19,983.0
1956-05-20,992.0
1956-05-21,938.0
1956-05-22,904.0
1956-05-23,880.0
1956-05-24,872.0
1956-05-25,840.0
1956-05-26,808.0
1956-05-27,776.0
1956-05-28,760.0
1956-05-29,732.0
1956-05-30,711.0
1956-05-31,704.0
1956-06-01,683.0
1956-06-02,669.0
1956-06-03,662.0
1956-06-04,655.0
1956-06-05,627.0
1956-06-06,620.0
1956-06-07,596.0
1956-06-08,596.0
1956-06-09,584.0
1956-06-10,566.0
1956-06-11,566.0
1956-06-12,549.0
1956-06-13,538.0
1956-06-14,544.0
1956-06-15,532.0
1956-06-16,532.0
1956-06-17,532.0
1956-06-18,516.0
1956-06-19,510.0
1956-06-20,500.0
1956-06-21,495.0
1956-06-22,475.0
1956-06-23,470.0
1956-06-24,450.0
1956-06-25,437.0
1956-06-26,428.0
1956-06-27,424.0
1956-06-28,401.0
1956-06-29,396.0
1956-06-30,383.0
1956-07-01,383.0
1956-07-02,365.0
1956-07-03,361.0
1956-07-04,353.0
1956-07-05,341.0
1956-07-06,337.0
1956-07-07,337.0
1956-07-08,325.0
1956-07-09,313.0
1956-07-10,305.0
1956-07-11,301.0
1956-07-12,297.0
1956-07-13,297.0
1956-07-14,289.0
1956-07-15,282.0
1956-07-16,274.0
1956-07-17,268.0
1956-07-18,257.0
1956-07-19,246.0
1956-07-20,240.0
1956-07-21,229.0
1956-07-22,226.0
1956-07-23,215.0
1956-07-24,206.0
1956-07-25,194.0
1956-07-26,185.0
1956-07-27,180.0
1956-07-28,174.0
1956-07-29,166.0
1956-07-30,161.0
1956-07-31,156.0
1956-08-01,149.0
1956-08-02,146.0
1956-08-03,142.0
1956-08-04,140.0
1956-08-05,137.0
1956-08-06,140.0
1956-08-07,137.0
1956-08-08,131.0
1956-08-09,127.0
1956-08-10,123.0
1956-08-11,119.0
1956-08-12,113.0
1956-08-13,110.0
1956-08-14,108.0
1956-08-15,106.0
1956-08-16,102.0
1956-08-17,101.0
1956-08-18,97.0
1956-08-19,95.0
1956-08-20,92.0
1956-08-21,92.0
1956-08-22,87.0
1956-08-23,85.0
1956-08-24,80.0
1956-08-25,77.0
1956-08-26,80.0
1956-08-27,76.0
1956-08-28,74.0
1956-08-29,70.0
1956-08-30,70.0
1956-08-31,68.0
1956-09-01,66.0
1956-09-02,68.0
1956-09-03,68.0
1956-09-04,68.0
1956-09-05,66.0
1956-09-06,66.0
1956-09-07,65.0
1956-09-08,62.0
1956-09-09,60.0
1956-09-10,61.0
1956-09-11,62.0
1956-09-12,65.0
1956-09-13,65.0
1956-09-14,66.0
1956-09-15,65.0
1956-09-16,66.0
1956-09-17,66.0
1956-09-18,70.0
1956-09-19,95.0
1956-09-20,110.0
1956-09-21,117.0
1956-09-22,119.0
1956-09-23,121.0
1956-09-24,123.0
1956-09-25,127.0
1956-09-26,129.0
1956-09-27,131.0
1956-09-28,135.0
1956-09-29,140.0
1956-09-30,146.0
1956-10-01,149.0
1956-10-02,151.0
1956-10-03,153.0
1956-10-04,156.0
1956-10-05,158.0
1956-10-06,161.0
1956-10-07,161.0
1956-10-08,158.0
1956-10-09,156.0
1956-10-10,158.0
1956-10-11,172.0
1956-10-12,172.0
1956-10-13,177.0
1956-10-14,182.0
1956-10-15,182.0
1956-10-16,182.0
1956-10-17,180.0
1956-10-18,177.0
1956-10-19,185.0
1956-10-20,188.0
1956-10-21,197.0
1956-10-22,191.0
1956-10-23,191.0
1956-10-24,197.0
1956-10-25,209.0
1956-10-26,232.0
1956-10-27,250.0
1956-10-28,268.0
1956-10-29,271.0
1956-10-30,282.0
1956-10-31,293.0
1956-11-01,329.0
1956-11-02,357.0
1956-11-03,365.0
1956-11-04,378.0
1956-11-05,378.0
1956-11-06,383.0
1956-11-07,392.0
1956-11-08,392.0
1956-11-09,401.0
1956-11-10,401.0
1956-11-11,406.0
1956-11-12,401.0
1956-11-13,401.0
1956-11-14,401.0
1956-11-15,392.0
1956-11-16,383.0
1956-11-17,406.0
1956-11-18,420.0
1956-11-19,425.0
1956-11-20,415.0
1956-11-21,410.0
1956-11-22,406.0
1956-11-23,401.0
1956-11-24,396.0
1956-11-25,392.0
1956-11-26,388.0
1956-11-27,388.0
1956-11-28,378.0
1956-11-29,374.0
1956-11-30,365.0
1956-12-01,361.0
1956-12-02,357.0
1956-12-03,349.0
1956-12-04,337.0
1956-12-05,297.0
1956-12-06,280.0
1956-12-07,250.0
1956-12-08,260.0
1956-12-09,270.0
1956-12-10,280.0
1956-12-11,361.0
1956-12-12,420.0
1956-12-13,425.0
1956-12-14,445.0
1956-12-15,445.0
1956-12-16,445.0
1956-12-17,450.0
1956-12-18,455.0
1956-12-19,460.0
1956-12-20,460.0
1956-12-21,460.0
1956-12-22,460.0
1956-12-23,450.0
1956-12-24,450.0
1956-12-25,445.0
1956-12-26,435.0
1956-12-27,425.0
1956-12-28,410.0
1956-12-29,406.0
1956-12-30,401.0
1956-12-31,396.0
1957-01-01,388.0
1957-01-02,370.0
1957-01-03,353.0
1957-01-04,333.0
1957-01-05,309.0
1957-01-06,289.0
1957-01-07,274.0
1957-01-08,246.0
1957-01-09,230.0
1957-01-10,230.0
1957-01-11,243.0
1957-01-12,243.0
1957-01-13,240.0
1957-01-14,236.0
1957-01-15,229.0
1957-01-16,210.0
1957-01-17,200.0
1957-01-18,210.0
1957-01-19,210.0
1957-01-20,215.0
1957-01-21,200.0
1957-01-22,200.0
1957-01-23,203.0
1957-01-24,200.0
1957-01-25,191.0
1957-01-26,180.0
1957-01-27,160.0
1957-01-28,170.0
1957-01-29,180.0
1957-01-30,170.0
1957-01-31,170.0
1957-02-01,160.0
1957-02-02,160.0
1957-02-03,150.0
1957-02-04,150.0
1957-02-05,150.0
1957-02-06,150.0
1957-02-07,150.0
1957-02-08,150.0
1957-02-09,160.0
1957-02-10,160.0
1957-02-11,160.0
1957-02-12,160.0
1957-02-13,160.0
1957-02-14,151.0
1957-02-15,157.0
1957-02-16,158.0
1957-02-17,161.0
1957-02-18,169.0
1957-02-19,177.0
1957-02-20,185.0
1957-02-21,197.0
1957-02-22,229.0
1957-02-23,274.0
1957-02-24,406.0
1957-02-25,551.0
1957-02-26,696.0
1957-02-27,835.0
1957-02-28,898.0
1957-03-01,943.0
1957-03-02,952.0
1957-03-03,952.0
1957-03-04,970.0
1957-03-05,997.0
1957-03-06,1040.0
1957-03-07,1050.0
1957-03-08,1040.0
1957-03-09,997.0
1957-03-10,970.0
1957-03-11,952.0
1957-03-12,979.0
1957-03-13,997.0
1957-03-14,1020.0
1957-03-15,1030.0
1957-03-16,1020.0
1957-03-17,1020.0
1957-03-18,1040.0
1957-03-19,1050.0
1957-03-20,997.0
1957-03-21,970.0
1957-03-22,952.0
1957-03-23,952.0
1957-03-24,916.0
1957-03-25,934.0
1957-03-26,934.0
1957-03-27,925.0
1957-03-28,907.0
1957-03-29,889.0
1957-03-30,862.0
1957-03-31,871.0
1957-04-01,898.0
1957-04-02,898.0
1957-04-03,889.0
1957-04-04,853.0
1957-04-05,782.0
1957-04-06,782.0
1957-04-07,790.0
1957-04-08,774.0
1957-04-09,750.0
1957-04-10,726.0
1957-04-11,718.0
1957-04-12,689.0
1957-04-13,689.0
1957-04-14,647.0
1957-04-15,668.0
1957-04-16,682.0
1957-04-17,675.0
1957-04-18,675.0
1957-04-19,689.0
1957-04-20,689.0
1957-04-21,675.0
1957-04-22,661.0
1957-04-23,640.0
1957-04-24,614.0
1957-04-25,601.0
1957-04-26,594.0
1957-04-27,588.0
1957-04-28,575.0
1957-04-29,563.0
1957-04-30,539.0
1957-05-01,515.0
1957-05-02,498.0
1957-05-03,504.0
1957-05-04,504.0
1957-05-05,498.0
1957-05-06,488.0
1957-05-07,476.0
1957-05-08,450.0
1957-05-09,445.0
1957-05-10,435.0
1957-05-11,430.0
1957-05-12,420.0
1957-05-13,410.0
1957-05-14,410.0
1957-05-15,401.0
1957-05-16,392.0
1957-05-17,378.0
1957-05-18,378.0
1957-05-19,365.0
1957-05-20,374.0
1957-05-21,374.0
1957-05-22,378.0
1957-05-23,374.0
1957-05-24,365.0
1957-05-25,357.0
1957-05-26,353.0
1957-05-27,349.0
1957-05-28,337.0
1957-05-29,333.0
1957-05-30,321.0
1957-05-31,313.0
1957-06-01,301.0
1957-06-02,289.0
1957-06-03,382.0
1957-06-04,271.0
1957-06-05,250.0
1957-06-06,250.0
1957-06-07,243.0
1957-06-08,236.0
1957-06-09,232.0
1957-06-10,226.0
1957-06-11,209.0
1957-06-12,200.0
1957-06-13,188.0
1957-06-14,185.0
1957-06-15,194.0
1957-06-16,194.0
1957-06-17,191.0
1957-06-18,185.0
1957-06-19,172.0
1957-06-20,169.0
1957-06-21,166.0
1957-06-22,163.0
1957-06-23,156.0
1957-06-24,151.0
1957-06-25,149.0
1957-06-26,144.0
1957-06-27,140.0
1957-06-28,137.0
1957-06-29,131.0
1957-06-30,123.0
1957-07-01,117.0
1957-07-02,113.0
1957-07-03,111.0
1957-07-04,106.0
1957-07-05,95.0
1957-07-06,94.0
1957-07-07,92.0
1957-07-08,88.0
1957-07-09,85.0
1957-07-10,78.0
1957-07-11,77.0
1957-07-12,76.0
1957-07-13,66.0
1957-07-14,66.0
1957-07-15,66.0
1957-07-16,65.0
1957-07-17,64.0
1957-07-18,58.0
1957-07-19,55.0
1957-07-20,48.0
1957-07-21,42.0
1957-07-22,39.0
1957-07-23,37.0
1957-07-24,36.0
1957-07-25,32.0
1957-07-26,31.0
1957-07-27,29.0
1957-07-28,27.0
1957-07-29,23.0
1957-07-30,22.0
1957-07-31,26.0
1957-08-01,28.0
1957-08-02,26.0
1957-08-03,24.0
1957-08-04,22.0
1957-08-05,22.0
1957-08-06,22.0
1957-08-07,22.0
1957-08-08,19.0
1957-08-09,19.0
1957-08-10,19.0
1957-08-11,19.0
1957-08-12,17.0
1957-08-13,16.0
1957-08-14,16.0
1957-08-15,15.0
1957-08-16,15.0
1957-08-17,11.0
1957-08-18,8.7
1957-08-19,7.4
1957-08-20,6.9
1957-08-21,6.9
1957-08-22,5.6
1957-08-23,4.3
1957-08-24,3.6
1957-08-25,3.6
1957-08-26,3.8
1957-08-27,3.3
1957-08-28,4.4
1957-08-29,5.4
1957-08-30,5.6
1957-08-31,6.2
1957-09-01,6.4
1957-09-02,6.4
1957-09-03,7.4
1957-09-04,8.2
1957-09-05,8.5
1957-09-06,9.0
1957-09-07,8.5
1957-09-08,11.0
1957-09-09,11.0
1957-09-10,9.7
1957-09-11,8.7
1957-09-12,10.0
1957-09-13,13.0
1957-09-14,14.0
1957-09-15,15.0
1957-09-16,16.0
1957-09-17,20.0
1957-09-18,25.0
1957-09-19,29.0
1957-09-20,28.0
1957-09-21,30.0
1957-09-22,32.0
1957-09-23,36.0
1957-09-24,36.0
1957-09-25,38.0
1957-09-26,43.0
1957-09-27,70.0
1957-09-28,95.0
1957-09-29,111.0
1957-09-30,135.0
1957-10-01,156.0
1957-10-02,169.0
1957-10-03,174.0
1957-10-04,191.0
1957-10-05,200.0
1957-10-06,218.0
1957-10-07,232.0
1957-10-08,243.0
1957-10-09,246.0
1957-10-10,260.0
1957-10-11,270.0
1957-10-12,275.0
1957-10-13,280.0
1957-10-14,285.0
1957-10-15,285.0
1957-10-16,280.0
1957-10-17,275.0
1957-10-18,270.0
1957-10-19,265.0
1957-10-20,260.0
1957-10-21,255.0
1957-10-22,260.0
1957-10-23,264.0
1957-10-24,278.0
1957-10-25,285.0
1957-10-26,293.0
1957-10-27,293.0
1957-10-28,289.0
1957-10-29,285.0
1957-10-30,282.0
1957-10-31,293.0
1957-11-01,289.0
1957-11-02,293.0
1957-11-03,282.0
1957-11-04,274.0
1957-11-05,268.0
1957-11-06,268.0
1957-11-07,264.0
1957-11-08,264.0
1957-11-09,264.0
1957-11-10,264.0
1957-11-11,264.0
1957-11-12,264.0
1957-11-13,297.0
1957-11-14,317.0
1957-11-15,333.0
1957-11-16,337.0
1957-11-17,337.0
1957-11-18,333.0
1957-11-19,337.0
1957-11-20,345.0
1957-11-21,345.0
1957-11-22,345.0
1957-11-23,340.0
1957-11-24,335.0
1957-11-25,335.0
1957-11-26,330.0
1957-11-27,320.0
1957-11-28,315.0
1957-11-29,310.0
1957-11-30,305.0
1957-12-01,305.0
1957-12-02,309.0
1957-12-03,309.0
1957-12-04,309.0
1957-12-05,297.0
1957-12-06,289.0
1957-12-07,285.0
1957-12-08,301.0
1957-12-09,305.0
1957-12-10,301.0
1957-12-11,297.0
1957-12-12,293.0
1957-12-13,293.0
1957-12-14,289.0
1957-12-15,297.0
1957-12-16,305.0
1957-12-17,293.0
1957-12-18,293.0
1957-12-19,264.0
1957-12-20,305.0
1957-12-21,370.0
1957-12-22,268.0
1957-12-23,341.0
1957-12-24,365.0
1957-12-25,374.0
1957-12-26,378.0
1957-12-27,383.0
1957-12-28,392.0
1957-12-29,410.0
1957-12-30,410.0
1957-12-31,410.0
1958-01-01,396.0
1958-01-02,396.0
1958-01-03,401.0
1958-01-04,396.0
1958-01-05,378.0
1958-01-06,370.0
1958-01-07,357.0
1958-01-08,337.0
1958-01-09,337.0
1958-01-10,337.0
1958-01-11,333.0
1958-01-12,333.0
1958-01-13,313.0
1958-01-14,321.0
1958-01-15,333.0
1958-01-16,349.0
1958-01-17,361.0
1958-01-18,361.0
1958-01-19,345.0
1958-01-20,341.0
1958-01-21,333.0
1958-01-22,321.0
1958-01-23,309.0
1958-01-24,289.0
1958-01-25,297.0
1958-01-26,305.0
1958-01-27,313.0
1958-01-28,293.0
1958-01-29,301.0
1958-01-30,329.0
1958-01-31,337.0
1958-02-01,349.0
1958-02-02,353.0
1958-02-03,370.0
1958-02-04,378.0
1958-02-05,396.0
1958-02-06,415.0
1958-02-07,435.0
1958-02-08,450.0
1958-02-09,460.0
1958-02-10,482.0
1958-02-11,498.0
1958-02-12,527.0
1958-02-13,545.0
1958-02-14,551.0
1958-02-15,620.0
1958-02-16,696.0
1958-02-17,750.0
1958-02-18,817.0
1958-02-19,889.0
1958-02-20,925.0
1958-02-21,970.0
1958-02-22,997.0
1958-02-23,1050.0
1958-02-24,1070.0
1958-02-25,1110.0
1958-02-26,1150.0
1958-02-27,1210.0
1958-02-28,1240.0
1958-03-01,1250.0
1958-03-02,1250.0
1958-03-03,1250.0
1958-03-04,1230.0
1958-03-05,1190.0
1958-03-06,1170.0
1958-03-07,1160.0
1958-03-08,1140.0
1958-03-09,1130.0
1958-03-10,1130.0
1958-03-11,1130.0
1958-03-12,1110.0
1958-03-13,1080.0
1958-03-14,1060.0
1958-03-15,1020.0
1958-03-16,1050.0
1958-03-17,970.0
1958-03-18,943.0
1958-03-19,925.0
1958-03-20,898.0
1958-03-21,889.0
1958-03-22,907.0
1958-03-23,916.0
1958-03-24,898.0
1958-03-25,898.0
1958-03-26,916.0
1958-03-27,943.0
1958-03-28,943.0
1958-03-29,898.0
1958-03-30,871.0
1958-03-31,871.0
1958-04-01,871.0
1958-04-02,844.0
1958-04-03,880.0
1958-04-04,898.0
1958-04-05,907.0
1958-04-06,907.0
1958-04-07,916.0
1958-04-08,907.0
1958-04-09,889.0
1958-04-10,907.0
1958-04-11,916.0
1958-04-12,916.0
1958-04-13,889.0
1958-04-14,871.0
1958-04-15,853.0
1958-04-16,835.0
1958-04-17,790.0
1958-04-18,790.0
1958-04-19,766.0
1958-04-20,742.0
1958-04-21,710.0
1958-04-22,726.0
1958-04-23,750.0
1958-04-24,774.0
1958-04-25,758.0
1958-04-26,758.0
1958-04-27,750.0
1958-04-28,734.0
1958-04-29,718.0
1958-04-30,703.0
1958-05-01,682.0
1958-05-02,654.0
1958-05-03,640.0
1958-05-04,627.0
1958-05-05,620.0
1958-05-06,627.0
1958-05-07,627.0
1958-05-08,608.0
1958-05-09,601.0
1958-05-10,588.0
1958-05-11,575.0
1958-05-12,569.0
1958-05-13,557.0
1958-05-14,557.0
1958-05-15,545.0
1958-05-16,539.0
1958-05-17,527.0
1958-05-18,515.0
1958-05-19,504.0
1958-05-20,493.0
1958-05-21,488.0
1958-05-22,476.0
1958-05-23,471.0
1958-05-24,482.0
1958-05-25,482.0
1958-05-26,466.0
1958-05-27,450.0
1958-05-28,445.0
1958-05-29,445.0
1958-05-30,435.0
1958-05-31,430.0
1958-06-01,430.0
1958-06-02,440.0
1958-06-03,476.0
1958-06-04,498.0
1958-06-05,493.0
1958-06-06,498.0
1958-06-07,510.0
1958-06-08,504.0
1958-06-09,510.0
1958-06-10,515.0
1958-06-11,504.0
1958-06-12,510.0
1958-06-13,504.0
1958-06-14,498.0
1958-06-15,498.0
1958-06-16,488.0
1958-06-17,482.0
1958-06-18,476.0
1958-06-19,460.0
1958-06-20,466.0
1958-06-21,460.0
1958-06-22,450.0
1958-06-23,466.0
1958-06-24,471.0
1958-06-25,476.0
1958-06-26,466.0
1958-06-27,450.0
1958-06-28,450.0
1958-06-29,435.0
1958-06-30,430.0
1958-07-01,425.0
1958-07-02,425.0
1958-07-03,420.0
1958-07-04,415.0
1958-07-05,401.0
1958-07-06,392.0
1958-07-07,388.0
1958-07-08,383.0
1958-07-09,374.0
1958-07-10,365.0
1958-07-11,361.0
1958-07-12,353.0
1958-07-13,341.0
1958-07-14,337.0
1958-07-15,329.0
1958-07-16,317.0
1958-07-17,313.0
1958-07-18,325.0
1958-07-19,321.0
1958-07-20,321.0
1958-07-21,309.0
1958-07-22,297.0
1958-07-23,289.0
1958-07-24,282.0
1958-07-25,278.0
1958-07-26,274.0
1958-07-27,271.0
1958-07-28,257.0
1958-07-29,250.0
1958-07-30,243.0
1958-07-31,229.0
1958-08-01,226.0
1958-08-02,215.0
1958-08-03,203.0
1958-08-04,203.0
1958-08-05,200.0
1958-08-06,188.0
1958-08-07,182.0
1958-08-08,177.0
1958-08-09,172.0
1958-08-10,166.0
1958-08-11,163.0
1958-08-12,161.0
1958-08-13,158.0
1958-08-14,153.0
1958-08-15,149.0
1958-08-16,144.0
1958-08-17,135.0
1958-08-18,129.0
1958-08-19,125.0
1958-08-20,127.0